Year,Month,Day,Hour,Minute,Value (Times are PST for temperature in C)
2011,04,08,00,00,4.70
2011,04,08,00,01,4.60
2011,04,08,00,02,4.50
2011,04,08,00,03,4.40
2011,04,08,00,04,4.30
2011,04,08,00,05,4.20
2011,04,08,00,06,4.10
2011,04,08,00,07,4.00
2011,04,08,00,08,3.90
2011,04,08,00,09,3.90
2011,04,08,00,10,3.80
2011,04,08,00,11,3.80
2011,04,08,00,12,3.70
2011,04,08,00,13,3.70
2011,04,08,00,14,3.70
2011,04,08,00,15,3.70
2011,04,08,00,16,3.70
2011,04,08,00,17,3.70
2011,04,08,00,18,3.70
2011,04,08,00,19,3.70
2011,04,08,00,20,3.70
2011,04,08,00,21,3.70
2011,04,08,00,22,3.70
2011,04,08,00,23,3.70
2011,04,08,00,24,3.70
2011,04,08,00,25,3.60
2011,04,08,00,26,3.60
2011,04,08,00,27,3.60
2011,04,08,00,28,3.60
2011,04,08,00,29,3.60
2011,04,08,00,30,3.60
2011,04,08,00,31,3.60
2011,04,08,00,32,3.50
2011,04,08,00,33,3.50
2011,04,08,00,34,3.40
2011,04,08,00,35,3.40
2011,04,08,00,36,3.40
2011,04,08,00,37,3.40
2011,04,08,00,38,3.40
2011,04,08,00,39,3.40
2011,04,08,00,40,3.40
2011,04,08,00,41,3.40
2011,04,08,00,42,3.40
2011,04,08,00,43,3.30
2011,04,08,00,44,3.30
2011,04,08,00,45,3.30
2011,04,08,00,46,3.40
2011,04,08,00,47,3.50
2011,04,08,00,48,3.60
2011,04,08,00,49,3.70
2011,04,08,00,50,3.70
2011,04,08,00,51,3.70
2011,04,08,00,52,3.60
2011,04,08,00,53,3.60
2011,04,08,00,54,3.60
2011,04,08,00,55,3.50
2011,04,08,00,56,3.50
2011,04,08,00,57,3.60
2011,04,08,00,58,3.60
2011,04,08,00,59,3.60
2011,04,08,01,00,3.60
2011,04,08,01,01,3.60
2011,04,08,01,02,3.60
2011,04,08,01,03,3.60
2011,04,08,01,04,3.60
2011,04,08,01,05,3.50
2011,04,08,01,06,3.40
2011,04,08,01,07,3.40
2011,04,08,01,08,3.30
2011,04,08,01,09,3.30
2011,04,08,01,10,3.20
2011,04,08,01,11,3.20
2011,04,08,01,12,3.20
2011,04,08,01,13,3.20
2011,04,08,01,14,3.10
2011,04,08,01,15,3.10
2011,04,08,01,16,3.10
2011,04,08,01,17,3.10
2011,04,08,01,18,3.20
2011,04,08,01,19,3.20
2011,04,08,01,20,3.20
2011,04,08,01,21,3.20
2011,04,08,01,22,3.10
2011,04,08,01,23,3.10
2011,04,08,01,24,3.00
2011,04,08,01,25,2.90
2011,04,08,01,26,2.80
2011,04,08,01,27,2.80
2011,04,08,01,28,2.80
2011,04,08,01,29,2.80
2011,04,08,01,30,2.70
2011,04,08,01,31,2.70
2011,04,08,01,32,2.70
2011,04,08,01,33,2.80
2011,04,08,01,34,2.80
2011,04,08,01,35,2.80
2011,04,08,01,36,2.80
2011,04,08,01,37,2.80
2011,04,08,01,38,2.80
2011,04,08,01,39,2.90
2011,04,08,01,40,2.90
2011,04,08,01,41,2.90
2011,04,08,01,42,2.90
2011,04,08,01,43,2.90
2011,04,08,01,44,2.90
2011,04,08,01,45,2.90
2011,04,08,01,46,2.90
2011,04,08,01,47,2.90
2011,04,08,01,48,2.90
2011,04,08,01,49,2.90
2011,04,08,01,50,2.90
2011,04,08,01,51,2.80
2011,04,08,01,52,2.80
2011,04,08,01,53,2.70
2011,04,08,01,54,2.70
2011,04,08,01,55,2.70
2011,04,08,01,56,2.60
2011,04,08,01,57,2.60
2011,04,08,01,58,2.60
2011,04,08,01,59,2.60
2011,04,08,02,00,2.60
2011,04,08,02,01,2.60
2011,04,08,02,02,2.60
2011,04,08,02,03,2.60
2011,04,08,02,04,2.60
2011,04,08,02,05,2.60
2011,04,08,02,06,2.60
2011,04,08,02,07,2.60
2011,04,08,02,08,2.60
2011,04,08,02,09,2.50
2011,04,08,02,10,2.50
2011,04,08,02,11,2.40
2011,04,08,02,12,2.40
2011,04,08,02,13,2.40
2011,04,08,02,14,2.40
2011,04,08,02,15,2.40
2011,04,08,02,16,2.40
2011,04,08,02,17,2.40
2011,04,08,02,18,2.40
2011,04,08,02,19,2.40
2011,04,08,02,20,2.40
2011,04,08,02,21,2.40
2011,04,08,02,22,2.40
2011,04,08,02,23,2.30
2011,04,08,02,24,2.30
2011,04,08,02,25,2.30
2011,04,08,02,26,2.30
2011,04,08,02,27,2.30
2011,04,08,02,28,2.30
2011,04,08,02,29,2.20
2011,04,08,02,30,2.20
2011,04,08,02,31,2.20
2011,04,08,02,32,2.20
2011,04,08,02,33,2.20
2011,04,08,02,34,2.20
2011,04,08,02,35,2.20
2011,04,08,02,36,2.10
2011,04,08,02,37,2.10
2011,04,08,02,38,2.10
2011,04,08,02,39,2.10
2011,04,08,02,40,2.10
2011,04,08,02,41,2.10
2011,04,08,02,42,2.10
2011,04,08,02,43,2.10
2011,04,08,02,44,2.00
2011,04,08,02,45,2.00
2011,04,08,02,46,2.00
2011,04,08,02,47,2.00
2011,04,08,02,48,2.00
2011,04,08,02,49,2.10
2011,04,08,02,50,2.10
2011,04,08,02,51,2.00
2011,04,08,02,52,2.00
2011,04,08,02,53,2.00
2011,04,08,02,54,1.90
2011,04,08,02,55,1.90
2011,04,08,02,56,1.90
2011,04,08,02,57,1.80
2011,04,08,02,58,1.80
2011,04,08,02,59,1.80
2011,04,08,03,00,1.80
2011,04,08,03,01,1.70
2011,04,08,03,02,1.70
2011,04,08,03,03,1.70
2011,04,08,03,04,1.70
2011,04,08,03,05,1.70
2011,04,08,03,06,1.70
2011,04,08,03,07,1.80
2011,04,08,03,08,1.80
2011,04,08,03,09,1.90
2011,04,08,03,10,2.00
2011,04,08,03,11,2.00
2011,04,08,03,12,2.10
2011,04,08,03,13,2.10
2011,04,08,03,14,2.10
2011,04,08,03,15,2.20
2011,04,08,03,16,2.20
2011,04,08,03,17,2.20
2011,04,08,03,18,2.30
2011,04,08,03,19,2.30
2011,04,08,03,20,2.30
2011,04,08,03,21,2.30
2011,04,08,03,22,2.30
2011,04,08,03,23,2.40
2011,04,08,03,24,2.40
2011,04,08,03,25,2.40
2011,04,08,03,26,2.40
2011,04,08,03,27,2.50
2011,04,08,03,28,2.50
2011,04,08,03,29,2.60
2011,04,08,03,30,2.70
2011,04,08,03,31,2.80
2011,04,08,03,32,2.80
2011,04,08,03,33,2.80
2011,04,08,03,34,2.90
2011,04,08,03,35,2.90
2011,04,08,03,36,2.90
2011,04,08,03,37,2.90
2011,04,08,03,38,2.90
2011,04,08,03,39,2.90
2011,04,08,03,40,2.80
2011,04,08,03,41,2.80
2011,04,08,03,42,2.80
2011,04,08,03,43,2.80
2011,04,08,03,44,2.80
2011,04,08,03,45,2.70
2011,04,08,03,46,2.70
2011,04,08,03,47,2.70
2011,04,08,03,48,2.70
2011,04,08,03,49,2.60
2011,04,08,03,50,2.60
2011,04,08,03,51,2.50
2011,04,08,03,52,2.50
2011,04,08,03,53,2.40
2011,04,08,03,54,2.40
2011,04,08,03,55,2.30
2011,04,08,03,56,2.30
2011,04,08,03,57,2.30
2011,04,08,03,58,2.30
2011,04,08,03,59,2.30
2011,04,08,04,00,2.20
2011,04,08,04,01,2.20
2011,04,08,04,02,2.20
2011,04,08,04,03,2.20
2011,04,08,04,04,2.20
2011,04,08,04,05,2.10
2011,04,08,04,06,2.10
2011,04,08,04,09,1.90
2011,04,08,04,10,1.90
2011,04,08,04,12,1.70
2011,04,08,04,13,1.70
2011,04,08,04,15,1.60
2011,04,08,04,16,1.50
2011,04,08,04,17,1.50
2011,04,08,04,18,1.40
2011,04,08,04,19,1.40
2011,04,08,04,20,1.30
2011,04,08,04,21,1.30
2011,04,08,04,22,1.30
2011,04,08,04,23,1.30
2011,04,08,04,24,1.30
2011,04,08,04,25,1.30
2011,04,08,04,26,1.30
2011,04,08,04,27,1.30
2011,04,08,04,28,1.30
2011,04,08,04,29,1.30
2011,04,08,04,30,1.30
2011,04,08,04,31,1.30
2011,04,08,04,32,1.30
2011,04,08,04,33,1.30
2011,04,08,04,34,1.30
2011,04,08,04,35,1.30
2011,04,08,04,36,1.20
2011,04,08,04,37,1.20
2011,04,08,04,38,1.10
2011,04,08,04,39,1.10
2011,04,08,04,40,1.00
2011,04,08,04,41,1.00
2011,04,08,04,42,0.90
2011,04,08,04,43,0.90
2011,04,08,04,44,0.90
2011,04,08,04,45,0.80
2011,04,08,04,46,0.80
2011,04,08,04,47,0.80
2011,04,08,04,48,0.80
2011,04,08,04,49,0.80
2011,04,08,04,50,0.70
2011,04,08,04,51,0.70
2011,04,08,04,52,0.70
2011,04,08,04,53,0.60
2011,04,08,04,54,0.60
2011,04,08,04,55,0.60
2011,04,08,04,56,0.50
2011,04,08,04,57,0.50
2011,04,08,04,58,0.50
2011,04,08,04,59,0.40
2011,04,08,05,00,0.40
2011,04,08,05,01,0.40
2011,04,08,05,02,0.40
2011,04,08,05,03,0.40
2011,04,08,05,04,0.40
2011,04,08,05,05,0.40
2011,04,08,05,06,0.40
2011,04,08,05,07,0.40
2011,04,08,05,08,0.40
2011,04,08,05,09,0.40
2011,04,08,05,10,0.40
2011,04,08,05,11,0.40
2011,04,08,05,12,0.40
2011,04,08,05,13,0.40
2011,04,08,05,14,0.40
2011,04,08,05,15,0.40
2011,04,08,05,16,0.30
2011,04,08,05,17,0.30
2011,04,08,05,18,0.30
2011,04,08,05,19,0.30
2011,04,08,05,20,0.30
2011,04,08,05,21,0.30
2011,04,08,05,22,0.30
2011,04,08,05,23,0.30
2011,04,08,05,24,0.30
2011,04,08,05,25,0.20
2011,04,08,05,26,0.20
2011,04,08,05,27,0.20
2011,04,08,05,28,0.20
2011,04,08,05,29,0.20
2011,04,08,05,30,0.20
2011,04,08,05,31,0.10
2011,04,08,05,32,0.10
2011,04,08,05,33,0.10
2011,04,08,05,34,0.10
2011,04,08,05,35,0.10
2011,04,08,05,36,0.00
2011,04,08,05,37,0.00
2011,04,08,05,38,0.00
2011,04,08,05,39,-0.10
2011,04,08,05,40,0.00
2011,04,08,05,41,-0.10
2011,04,08,05,42,-0.10
2011,04,08,05,43,-0.10
2011,04,08,05,44,-0.10
2011,04,08,05,45,-0.10
2011,04,08,05,46,-0.10
2011,04,08,05,47,-0.10
2011,04,08,05,48,-0.20
2011,04,08,05,49,-0.20
2011,04,08,05,50,-0.20
2011,04,08,05,51,-0.20
2011,04,08,05,52,-0.10
2011,04,08,05,53,-0.10
2011,04,08,05,54,-0.10
2011,04,08,05,55,0.00
2011,04,08,05,56,0.00
2011,04,08,05,57,0.10
2011,04,08,05,58,0.10
2011,04,08,05,59,0.10
2011,04,08,06,00,0.10
2011,04,08,06,01,0.10
2011,04,08,06,02,0.00
2011,04,08,06,03,-0.10
2011,04,08,06,04,-0.10
2011,04,08,06,05,-0.10
2011,04,08,06,06,-0.20
2011,04,08,06,07,-0.20
2011,04,08,06,08,-0.20
2011,04,08,06,09,-0.20
2011,04,08,06,10,-0.20
2011,04,08,06,11,-0.20
2011,04,08,06,12,-0.20
2011,04,08,06,13,-0.10
2011,04,08,06,14,-0.10
2011,04,08,06,15,-0.10
2011,04,08,06,16,-0.10
2011,04,08,06,17,-0.10
2011,04,08,06,18,-0.10
2011,04,08,06,19,-0.10
2011,04,08,06,20,-0.20
2011,04,08,06,21,-0.20
2011,04,08,06,22,-0.10
2011,04,08,06,23,-0.10
2011,04,08,06,24,-0.10
2011,04,08,06,25,-0.10
2011,04,08,06,26,-0.20
2011,04,08,06,27,-0.20
2011,04,08,06,28,-0.20
2011,04,08,06,29,-0.20
2011,04,08,06,30,-0.20
2011,04,08,06,31,-0.20
2011,04,08,06,32,-0.20
2011,04,08,06,33,-0.30
2011,04,08,06,34,-0.30
2011,04,08,06,35,-0.30
2011,04,08,06,36,-0.30
2011,04,08,06,37,-0.30
2011,04,08,06,38,-0.30
2011,04,08,06,39,-0.30
2011,04,08,06,40,-0.30
2011,04,08,06,41,-0.30
2011,04,08,06,42,-0.30
2011,04,08,06,43,-0.30
2011,04,08,06,44,-0.30
2011,04,08,06,45,-0.30
2011,04,08,06,46,-0.30
2011,04,08,06,47,-0.30
2011,04,08,06,48,-0.30
2011,04,08,06,49,-0.30
2011,04,08,06,50,-0.30
2011,04,08,06,51,-0.30
2011,04,08,06,52,-0.30
2011,04,08,06,53,-0.20
2011,04,08,06,54,-0.20
2011,04,08,06,55,-0.30
2011,04,08,06,56,-0.30
2011,04,08,06,57,-0.30
2011,04,08,06,58,-0.30
2011,04,08,06,59,-0.20
2011,04,08,07,00,-0.20
2011,04,08,07,01,-0.20
2011,04,08,07,02,-0.20
2011,04,08,07,03,-0.10
2011,04,08,07,04,-0.10
2011,04,08,07,05,-0.10
2011,04,08,07,06,0.00
2011,04,08,07,07,0.00
2011,04,08,07,08,0.00
2011,04,08,07,09,0.10
2011,04,08,07,10,0.10
2011,04,08,07,11,0.10
2011,04,08,07,12,0.20
2011,04,08,07,13,0.20
2011,04,08,07,14,0.20
2011,04,08,07,15,0.30
2011,04,08,07,16,0.30
2011,04,08,07,17,0.30
2011,04,08,07,18,0.40
2011,04,08,07,19,0.40
2011,04,08,07,20,0.50
2011,04,08,07,21,0.60
2011,04,08,07,22,0.70
2011,04,08,07,23,0.80
2011,04,08,07,24,0.90
2011,04,08,07,25,1.00
2011,04,08,07,26,1.10
2011,04,08,07,27,1.20
2011,04,08,07,28,1.20
2011,04,08,07,29,1.30
2011,04,08,07,30,1.30
2011,04,08,07,31,1.30
2011,04,08,07,32,1.40
2011,04,08,07,33,1.50
2011,04,08,07,34,1.50
2011,04,08,07,35,1.60
2011,04,08,07,36,1.60
2011,04,08,07,37,1.70
2011,04,08,07,38,1.80
2011,04,08,07,39,1.80
2011,04,08,07,40,1.90
2011,04,08,07,41,2.00
2011,04,08,07,42,2.10
2011,04,08,07,43,2.20
2011,04,08,07,44,2.30
2011,04,08,07,45,2.40
2011,04,08,07,46,2.50
2011,04,08,07,47,2.50
2011,04,08,07,48,2.60
2011,04,08,07,49,2.70
2011,04,08,07,50,2.70
2011,04,08,07,51,2.70
2011,04,08,07,52,2.70
2011,04,08,07,53,2.80
2011,04,08,07,54,2.80
2011,04,08,07,55,2.80
2011,04,08,07,56,2.90
2011,04,08,07,57,2.90
2011,04,08,07,58,3.00
2011,04,08,07,59,3.00
2011,04,08,08,00,3.10
2011,04,08,08,01,3.10
2011,04,08,08,02,3.20
2011,04,08,08,03,3.30
2011,04,08,08,04,3.40
2011,04,08,08,05,3.40
2011,04,08,08,06,3.50
2011,04,08,08,07,3.60
2011,04,08,08,08,3.70
2011,04,08,08,09,3.80
2011,04,08,08,10,4.00
2011,04,08,08,11,4.10
2011,04,08,08,12,4.20
2011,04,08,08,13,4.30
2011,04,08,08,14,4.40
2011,04,08,08,15,4.60
2011,04,08,08,16,4.70
2011,04,08,08,17,4.80
2011,04,08,08,18,5.00
2011,04,08,08,19,5.10
2011,04,08,08,20,5.20
2011,04,08,08,21,5.30
2011,04,08,08,22,5.40
2011,04,08,08,23,5.50
2011,04,08,08,24,5.60
2011,04,08,08,25,5.80
2011,04,08,08,26,5.90
2011,04,08,08,27,6.10
2011,04,08,08,28,6.10
2011,04,08,08,29,6.20
2011,04,08,08,30,6.30
2011,04,08,08,31,6.30
2011,04,08,08,32,6.40
2011,04,08,08,33,6.40
2011,04,08,08,34,6.50
2011,04,08,08,35,6.60
2011,04,08,08,36,6.60
2011,04,08,08,37,6.80
2011,04,08,08,38,6.90
2011,04,08,08,39,7.00
2011,04,08,08,40,7.10
2011,04,08,08,41,7.20
2011,04,08,08,42,7.30
2011,04,08,08,43,7.40
2011,04,08,08,44,7.40
2011,04,08,08,45,7.40
2011,04,08,08,46,7.50
2011,04,08,08,47,7.50
2011,04,08,08,48,7.60
2011,04,08,08,49,7.60
2011,04,08,08,50,7.60
2011,04,08,08,51,7.70
2011,04,08,08,52,7.70
2011,04,08,08,53,7.70
2011,04,08,08,54,7.70
2011,04,08,08,55,7.70
2011,04,08,08,56,7.70
2011,04,08,08,57,7.70
2011,04,08,08,58,7.70
2011,04,08,08,59,7.80
2011,04,08,09,00,7.80
2011,04,08,09,01,7.80
2011,04,08,09,02,7.80
2011,04,08,09,03,7.80
2011,04,08,09,04,7.90
2011,04,08,09,05,7.90
2011,04,08,09,06,7.90
2011,04,08,09,07,7.90
2011,04,08,09,08,7.90
2011,04,08,09,09,7.90
2011,04,08,09,10,8.00
2011,04,08,09,11,8.00
2011,04,08,09,12,8.10
2011,04,08,09,13,8.10
2011,04,08,09,14,8.10
2011,04,08,09,15,8.20
2011,04,08,09,16,8.20
2011,04,08,09,17,8.30
2011,04,08,09,18,8.30
2011,04,08,09,19,8.40
2011,04,08,09,20,8.60
2011,04,08,09,21,8.60
2011,04,08,09,22,8.60
2011,04,08,09,23,8.60
2011,04,08,09,24,8.60
2011,04,08,09,25,8.60
2011,04,08,09,26,8.60
2011,04,08,09,27,8.60
2011,04,08,09,28,8.60
2011,04,08,09,29,8.60
2011,04,08,09,30,8.60
2011,04,08,09,31,8.60
2011,04,08,09,32,8.70
2011,04,08,09,33,8.70
2011,04,08,09,34,8.80
2011,04,08,09,35,8.80
2011,04,08,09,36,8.80
2011,04,08,09,37,8.80
2011,04,08,09,38,8.80
2011,04,08,09,39,8.80
2011,04,08,09,40,8.80
2011,04,08,09,41,8.70
2011,04,08,09,42,8.70
2011,04,08,09,43,8.80
2011,04,08,09,44,8.80
2011,04,08,09,45,8.90
2011,04,08,09,46,9.00
2011,04,08,09,47,9.10
2011,04,08,09,48,9.10
2011,04,08,09,49,9.20
2011,04,08,09,50,9.20
2011,04,08,09,51,9.30
2011,04,08,09,52,9.30
2011,04,08,09,53,9.30
2011,04,08,09,54,9.30
2011,04,08,09,55,9.40
2011,04,08,09,56,9.40
2011,04,08,09,57,9.40
2011,04,08,09,58,9.40
2011,04,08,09,59,9.50
2011,04,08,10,00,9.50
2011,04,08,10,01,9.60
2011,04,08,10,02,9.60
2011,04,08,10,03,9.60
2011,04,08,10,04,9.50
2011,04,08,10,05,9.40
2011,04,08,10,06,9.40
2011,04,08,10,07,9.40
2011,04,08,10,08,9.40
2011,04,08,10,09,9.40
2011,04,08,10,10,9.40
2011,04,08,10,11,9.40
2011,04,08,10,12,9.40
2011,04,08,10,13,9.30
2011,04,08,10,14,9.30
2011,04,08,10,15,9.30
2011,04,08,10,16,9.20
2011,04,08,10,17,9.10
2011,04,08,10,18,8.90
2011,04,08,10,19,8.80
2011,04,08,10,20,8.70
2011,04,08,10,21,8.70
2011,04,08,10,22,8.70
2011,04,08,10,23,8.80
2011,04,08,10,24,8.80
2011,04,08,10,25,8.80
2011,04,08,10,26,8.80
2011,04,08,10,27,8.80
2011,04,08,10,28,8.90
2011,04,08,10,29,8.90
2011,04,08,10,30,8.90
2011,04,08,10,31,8.90
2011,04,08,10,32,9.00
2011,04,08,10,33,9.10
2011,04,08,10,34,9.10
2011,04,08,10,35,9.10
2011,04,08,10,36,9.20
2011,04,08,10,37,9.30
2011,04,08,10,38,9.30
2011,04,08,10,39,9.40
2011,04,08,10,40,9.30
2011,04,08,10,41,9.30
2011,04,08,10,42,9.30
2011,04,08,10,43,9.30
2011,04,08,10,44,9.40
2011,04,08,10,45,9.40
2011,04,08,10,46,9.40
2011,04,08,10,47,9.40
2011,04,08,10,48,9.40
2011,04,08,10,49,9.40
2011,04,08,10,50,9.30
2011,04,08,10,51,9.40
2011,04,08,10,52,9.40
2011,04,08,10,53,9.40
2011,04,08,10,54,9.40
2011,04,08,10,55,9.50
2011,04,08,10,56,9.60
2011,04,08,10,57,9.60
2011,04,08,10,58,9.50
2011,04,08,10,59,9.50
2011,04,08,11,00,9.50
2011,04,08,11,01,9.50
2011,04,08,11,02,9.50
2011,04,08,11,03,9.50
2011,04,08,11,04,9.50
2011,04,08,11,05,9.40
2011,04,08,11,06,9.40
2011,04,08,11,07,9.50
2011,04,08,11,08,9.50
2011,04,08,11,09,9.60
2011,04,08,11,10,9.60
2011,04,08,11,11,9.60
2011,04,08,11,12,9.70
2011,04,08,11,13,9.70
2011,04,08,11,14,9.80
2011,04,08,11,15,9.80
2011,04,08,11,16,9.90
2011,04,08,11,17,9.80
2011,04,08,11,18,9.80
2011,04,08,11,19,9.80
2011,04,08,11,20,9.80
2011,04,08,11,21,9.70
2011,04,08,11,22,9.70
2011,04,08,11,23,9.80
2011,04,08,11,24,9.80
2011,04,08,11,25,9.70
2011,04,08,11,26,9.70
2011,04,08,11,27,9.70
2011,04,08,11,28,9.70
2011,04,08,11,29,9.80
2011,04,08,11,30,9.80
2011,04,08,11,31,9.80
2011,04,08,11,32,9.90
2011,04,08,11,33,9.90
2011,04,08,11,34,10.00
2011,04,08,11,35,10.00
2011,04,08,11,36,10.10
2011,04,08,11,37,10.20
2011,04,08,11,38,10.20
2011,04,08,11,39,10.20
2011,04,08,11,40,10.20
2011,04,08,11,41,10.20
2011,04,08,11,42,10.10
2011,04,08,11,43,10.10
2011,04,08,11,44,10.00
2011,04,08,11,45,10.00
2011,04,08,11,46,10.00
2011,04,08,11,47,10.00
2011,04,08,11,48,10.00
2011,04,08,11,49,10.00
2011,04,08,11,50,9.90
2011,04,08,11,51,9.90
2011,04,08,11,52,9.90
2011,04,08,11,53,9.90
2011,04,08,11,54,9.90
2011,04,08,11,55,9.90
2011,04,08,11,56,10.00
2011,04,08,11,57,10.10
2011,04,08,11,58,10.10
2011,04,08,11,59,10.10
2011,04,08,12,00,10.20
2011,04,08,12,01,10.20
2011,04,08,12,02,10.10
2011,04,08,12,03,10.10
2011,04,08,12,04,10.20
2011,04,08,12,05,10.20
2011,04,08,12,06,10.10
2011,04,08,12,07,10.10
2011,04,08,12,08,10.10
2011,04,08,12,09,10.10
2011,04,08,12,10,10.10
2011,04,08,12,11,10.10
2011,04,08,12,12,10.10
2011,04,08,12,13,10.20
2011,04,08,12,14,10.30
2011,04,08,12,15,10.30
2011,04,08,12,16,10.30
2011,04,08,12,17,10.20
2011,04,08,12,18,10.10
2011,04,08,12,19,10.10
2011,04,08,12,20,10.20
2011,04,08,12,21,10.20
2011,04,08,12,22,10.30
2011,04,08,12,23,10.30
2011,04,08,12,24,10.20
2011,04,08,12,25,10.20
2011,04,08,12,26,10.20
2011,04,08,12,27,10.30
2011,04,08,12,28,10.30
2011,04,08,12,29,10.20
2011,04,08,12,30,10.20
2011,04,08,12,31,10.20
2011,04,08,12,32,10.10
2011,04,08,12,33,10.00
2011,04,08,12,34,9.90
2011,04,08,12,35,9.90
2011,04,08,12,36,9.80
2011,04,08,12,37,9.90
2011,04,08,12,38,9.90
2011,04,08,12,39,10.00
2011,04,08,12,40,10.10
2011,04,08,12,41,10.20
2011,04,08,12,42,10.30
2011,04,08,12,43,10.50
2011,04,08,12,44,10.60
2011,04,08,12,45,10.60
2011,04,08,12,46,10.60
2011,04,08,12,47,10.60
2011,04,08,12,48,10.50
2011,04,08,12,49,10.50
2011,04,08,12,50,10.40
2011,04,08,12,51,10.30
2011,04,08,12,52,10.30
2011,04,08,12,53,10.30
2011,04,08,12,54,10.30
2011,04,08,12,55,10.30
2011,04,08,12,56,10.30
2011,04,08,12,57,10.20
2011,04,08,12,58,10.30
2011,04,08,12,59,10.30
2011,04,08,13,00,10.40
2011,04,08,13,01,10.30
2011,04,08,13,02,10.20
2011,04,08,13,03,10.20
2011,04,08,13,04,10.20
2011,04,08,13,05,10.20
2011,04,08,13,06,10.20
2011,04,08,13,07,10.20
2011,04,08,13,08,10.20
2011,04,08,13,09,10.10
2011,04,08,13,10,10.10
2011,04,08,13,11,10.10
2011,04,08,13,12,10.10
2011,04,08,13,13,10.10
2011,04,08,13,14,10.10
2011,04,08,13,15,10.10
2011,04,08,13,16,10.20
2011,04,08,13,17,10.20
2011,04,08,13,18,10.20
2011,04,08,13,19,10.20
2011,04,08,13,20,10.20
2011,04,08,13,21,10.20
2011,04,08,13,22,10.20
2011,04,08,13,23,10.30
2011,04,08,13,24,10.40
2011,04,08,13,25,10.40
2011,04,08,13,26,10.50
2011,04,08,13,27,10.50
2011,04,08,13,28,10.50
2011,04,08,13,29,10.50
2011,04,08,13,30,10.50
2011,04,08,13,31,10.60
2011,04,08,13,32,10.60
2011,04,08,13,33,10.70
2011,04,08,13,34,10.80
2011,04,08,13,35,10.80
2011,04,08,13,36,10.80
2011,04,08,13,37,10.70
2011,04,08,13,38,10.70
2011,04,08,13,39,10.80
2011,04,08,13,40,10.80
2011,04,08,13,41,10.80
2011,04,08,13,42,10.80
2011,04,08,13,43,11.00
2011,04,08,13,44,11.10
2011,04,08,13,45,11.20
2011,04,08,13,46,11.40
2011,04,08,13,47,11.50
2011,04,08,13,48,11.50
2011,04,08,13,49,11.60
2011,04,08,13,50,11.60
2011,04,08,13,51,11.60
2011,04,08,13,52,11.70
2011,04,08,13,53,11.70
2011,04,08,13,54,11.70
2011,04,08,13,55,11.70
2011,04,08,13,56,11.70
2011,04,08,13,57,11.70
2011,04,08,13,58,11.70
2011,04,08,13,59,11.70
2011,04,08,14,00,11.70
2011,04,08,14,01,11.70
2011,04,08,14,02,11.70
2011,04,08,14,03,11.80
2011,04,08,14,04,11.70
2011,04,08,14,05,11.80
2011,04,08,14,06,11.80
2011,04,08,14,07,11.90
2011,04,08,14,08,11.90
2011,04,08,14,09,12.00
2011,04,08,14,10,12.00
2011,04,08,14,11,11.90
2011,04,08,14,12,11.80
2011,04,08,14,13,11.80
2011,04,08,14,14,11.70
2011,04,08,14,15,11.70
2011,04,08,14,16,11.70
2011,04,08,14,17,11.70
2011,04,08,14,18,11.70
2011,04,08,14,19,11.60
2011,04,08,14,20,11.60
2011,04,08,14,21,11.60
2011,04,08,14,22,11.60
2011,04,08,14,23,11.60
2011,04,08,14,24,11.70
2011,04,08,14,25,11.80
2011,04,08,14,26,11.70
2011,04,08,14,27,11.70
2011,04,08,14,28,11.60
2011,04,08,14,29,11.60
2011,04,08,14,30,11.60
2011,04,08,14,31,11.60
2011,04,08,14,32,11.50
2011,04,08,14,33,11.50
2011,04,08,14,34,11.40
2011,04,08,14,35,11.40
2011,04,08,14,36,11.30
2011,04,08,14,37,11.30
2011,04,08,14,38,11.30
2011,04,08,14,39,11.30
2011,04,08,14,40,11.30
2011,04,08,14,41,11.30
2011,04,08,14,42,11.30
2011,04,08,14,43,11.40
2011,04,08,14,44,11.40
2011,04,08,14,45,11.50
2011,04,08,14,46,11.50
2011,04,08,14,47,11.50
2011,04,08,14,48,11.50
2011,04,08,14,49,11.50
2011,04,08,14,50,11.60
2011,04,08,14,51,11.60
2011,04,08,14,52,11.70
2011,04,08,14,53,11.80
2011,04,08,14,54,11.70
2011,04,08,14,55,11.60
2011,04,08,14,56,11.50
2011,04,08,14,57,11.50
2011,04,08,14,58,11.50
2011,04,08,14,59,11.50
2011,04,08,15,00,11.50
2011,04,08,15,01,11.60
2011,04,08,15,02,11.50
2011,04,08,15,03,11.40
2011,04,08,15,04,11.30
2011,04,08,15,05,11.30
2011,04,08,15,06,11.40
2011,04,08,15,07,11.50
2011,04,08,15,08,11.60
2011,04,08,15,09,11.50
2011,04,08,15,10,11.50
2011,04,08,15,11,11.50
2011,04,08,15,12,11.30
2011,04,08,15,13,11.30
2011,04,08,15,14,11.20
2011,04,08,15,15,11.20
2011,04,08,15,16,11.20
2011,04,08,15,17,11.20
2011,04,08,15,18,11.20
2011,04,08,15,19,11.20
2011,04,08,15,20,11.30
2011,04,08,15,21,11.30
2011,04,08,15,22,11.30
2011,04,08,15,23,11.40
2011,04,08,15,24,11.40
2011,04,08,15,25,11.50
2011,04,08,15,26,11.60
2011,04,08,15,27,11.60
2011,04,08,15,28,11.60
2011,04,08,15,29,11.70
2011,04,08,15,30,11.80
2011,04,08,15,31,11.90
2011,04,08,15,32,12.00
2011,04,08,15,33,12.00
2011,04,08,15,34,12.10
2011,04,08,15,35,12.10
2011,04,08,15,36,12.00
2011,04,08,15,37,12.00
2011,04,08,15,38,12.10
2011,04,08,15,39,12.10
2011,04,08,15,40,12.10
2011,04,08,15,41,12.20
2011,04,08,15,42,12.20
2011,04,08,15,43,12.30
2011,04,08,15,44,12.30
2011,04,08,15,45,12.30
2011,04,08,15,46,12.20
2011,04,08,15,47,12.20
2011,04,08,15,48,12.20
2011,04,08,15,49,12.20
2011,04,08,15,50,12.20
2011,04,08,15,51,12.20
2011,04,08,15,52,12.20
2011,04,08,15,53,12.20
2011,04,08,15,54,12.20
2011,04,08,15,55,12.10
2011,04,08,15,56,12.00
2011,04,08,15,57,12.00
2011,04,08,15,58,12.00
2011,04,08,15,59,11.90
2011,04,08,16,00,11.90
2011,04,08,16,01,11.90
2011,04,08,16,02,11.90
2011,04,08,16,03,11.90
2011,04,08,16,04,11.80
2011,04,08,16,05,11.80
2011,04,08,16,06,11.70
2011,04,08,16,07,11.80
2011,04,08,16,08,11.80
2011,04,08,16,09,11.90
2011,04,08,16,10,11.80
2011,04,08,16,11,11.80
2011,04,08,16,12,11.60
2011,04,08,16,13,11.60
2011,04,08,16,14,11.60
2011,04,08,16,15,11.60
2011,04,08,16,16,11.50
2011,04,08,16,17,11.30
2011,04,08,16,18,11.30
2011,04,08,16,19,11.20
2011,04,08,16,20,11.30
2011,04,08,16,21,11.30
2011,04,08,16,22,11.40
2011,04,08,16,23,11.40
2011,04,08,16,24,11.40
2011,04,08,16,25,11.40
2011,04,08,16,26,11.40
2011,04,08,16,27,11.50
2011,04,08,16,28,11.50
2011,04,08,16,29,11.60
2011,04,08,16,30,11.60
2011,04,08,16,31,11.70
2011,04,08,16,32,11.70
2011,04,08,16,33,11.80
2011,04,08,16,34,11.80
2011,04,08,16,35,11.80
2011,04,08,16,36,11.80
2011,04,08,16,37,11.80
2011,04,08,16,38,11.80
2011,04,08,16,39,11.90
2011,04,08,16,40,11.90
2011,04,08,16,41,11.90
2011,04,08,16,42,11.90
2011,04,08,16,43,11.90
2011,04,08,16,44,11.90
2011,04,08,16,45,12.00
2011,04,08,16,46,12.10
2011,04,08,16,47,12.20
2011,04,08,16,48,12.20
2011,04,08,16,49,12.30
2011,04,08,16,50,12.40
2011,04,08,16,51,12.40
2011,04,08,16,52,12.40
2011,04,08,16,53,12.40
2011,04,08,16,54,12.40
2011,04,08,16,55,12.40
2011,04,08,16,56,12.40
2011,04,08,16,57,12.40
2011,04,08,16,58,12.50
2011,04,08,16,59,12.50
2011,04,08,17,00,12.40
2011,04,08,17,01,12.40
2011,04,08,17,02,12.30
2011,04,08,17,03,12.10
2011,04,08,17,04,12.10
2011,04,08,17,05,12.00
2011,04,08,17,06,11.90
2011,04,08,17,07,11.80
2011,04,08,17,08,11.80
2011,04,08,17,09,11.70
2011,04,08,17,10,11.70
2011,04,08,17,11,11.60
2011,04,08,17,12,11.40
2011,04,08,17,13,11.30
2011,04,08,17,14,11.20
2011,04,08,17,15,11.10
2011,04,08,17,16,11.10
2011,04,08,17,17,11.00
2011,04,08,17,18,10.90
2011,04,08,17,19,10.90
2011,04,08,17,20,10.90
2011,04,08,17,21,11.00
2011,04,08,17,22,11.00
2011,04,08,17,23,11.00
2011,04,08,17,24,11.00
2011,04,08,17,25,11.00
2011,04,08,17,26,10.90
2011,04,08,17,27,11.00
2011,04,08,17,28,10.90
2011,04,08,17,29,10.90
2011,04,08,17,30,10.90
2011,04,08,17,31,10.90
2011,04,08,17,32,10.80
2011,04,08,17,33,10.80
2011,04,08,17,34,10.80
2011,04,08,17,35,10.80
2011,04,08,17,36,10.70
2011,04,08,17,37,10.60
2011,04,08,17,38,10.60
2011,04,08,17,39,10.60
2011,04,08,17,40,10.60
2011,04,08,17,41,10.60
2011,04,08,17,42,10.60
2011,04,08,17,43,10.60
2011,04,08,17,44,10.60
2011,04,08,17,45,10.60
2011,04,08,17,46,10.60
2011,04,08,17,47,10.60
2011,04,08,17,48,10.60
2011,04,08,17,49,10.60
2011,04,08,17,50,10.50